When you browse on this site, cookies collect data to enhance your experience and personalize the content and advertising you see.
Visit our Privacy Policy to learn more. By continuing to use the site, you agree to this use of cookies and data.
  • In Lithuania
  • List of Countries
  • For 7 days
  • Water Temperature
  • Satellite Maps
  • Weather Map
  • Weather Widgets
  • user-avatar
    Login

    Hourly Weather Stupino

    Today, 18 March, Monday

    Time Temperature Precipitation Wind Pressure Humidity
    00:00 +4°C° 0 mm 2 mps 763 mmHg 82%
    01:00 +4°C° 0 mm 2 mps 763 mmHg 84%
    02:00 +3°C° 0 mm 2 mps 763 mmHg 87%
    03:00 +2°C° 0 mm 3 mps 763 mmHg 89%
    04:00 +1°C° 0 mm 3 mps 764 mmHg 90%
    05:00 +1°C° 0 mm 3 mps 765 mmHg 90%
    06:00 +1°C° 0 mm 3 mps 765 mmHg 91%
    07:00 +1°C° 0 mm 3 mps 766 mmHg 86%
    08:00 +2°C° 0 mm 3 mps 766 mmHg 81%
    09:00 +2°C° 0 mm 3 mps 767 mmHg 77%
    10:00 +3°C° 0 mm 4 mps 767 mmHg 72%
    11:00 +4°C° 0 mm 4 mps 767 mmHg 67%
    12:00 +6°C° 0 mm 4 mps 767 mmHg 63%
    13:00 +6°C° 0 mm 4 mps 767 mmHg 62%
    14:00 +6°C° 0 mm 5 mps 767 mmHg 61%
    15:00 +6°C° 0 mm 5 mps 767 mmHg 60%
    16:00 +5°C° 0 mm 5 mps 768 mmHg 64%
    17:00 +3°C° 0 mm 5 mps 768 mmHg 68%
    18:00 +2°C° 0 mm 5 mps 768 mmHg 72%
    19:00 +1°C° 0 mm 5 mps 769 mmHg 75%
    20:00 +1°C° 0 mm 4 mps 769 mmHg 78%
    21:00 0°C° 0 mm 4 mps 770 mmHg 81%
    22:00 -1°C° 0 mm 4 mps 770 mmHg 82%
    23:00 0°C° 0 mm 3 mps 770 mmHg 83%

    Tomorrow, 19 March, Tuesday

    Time Temperature Precipitation Wind Pressure Humidity
    00:00 -1°C° 0 mm 3 mps 770 mmHg 84%
    01:00 -1°C° 0 mm 3 mps 770 mmHg 84%
    02:00 -1°C° 0 mm 3 mps 771 mmHg 85%
    03:00 -2°C° 0 mm 2 mps 771 mmHg 85%
    04:00 -2°C° 0 mm 3 mps 771 mmHg 85%
    05:00 -2°C° 0 mm 3 mps 771 mmHg 84%
    06:00 -2°C° 0 mm 3 mps 771 mmHg 83%
    07:00 -1°C° 0 mm 3 mps 771 mmHg 77%
    08:00 0°C° 0 mm 3 mps 771 mmHg 72%
    09:00 0°C° 0 mm 4 mps 772 mmHg 66%
    10:00 +3°C° 0 mm 4 mps 771 mmHg 62%
    11:00 +4°C° 0 mm 3 mps 771 mmHg 58%
    12:00 +5°C° 0 mm 3 mps 771 mmHg 53%
    13:00 +7°C° 0 mm 3 mps 771 mmHg 52%
    14:00 +8°C° 0 mm 3 mps 771 mmHg 50%
    15:00 +8°C° 0 mm 3 mps 771 mmHg 49%
    16:00 +8°C° 0 mm 3 mps 771 mmHg 53%
    17:00 +7°C° 0 mm 3 mps 771 mmHg 57%
    18:00 +5°C° 0 mm 3 mps 771 mmHg 61%
    19:00 +4°C° 0 mm 3 mps 771 mmHg 65%
    20:00 +3°C° 0 mm 3 mps 771 mmHg 70%
    21:00 +2°C° 0 mm 3 mps 771 mmHg 74%
    22:00 +1°C° 0 mm 3 mps 771 mmHg 75%
    23:00 +1°C° 0 mm 3 mps 771 mmHg 76%

    Day after tomorrow, 20 March, Wednesday

    Time Temperature Precipitation Wind Pressure Humidity
    00:00 0°C° 0 mm 3 mps 771 mmHg 77%
    01:00 0°C° 0 mm 3 mps 771 mmHg 77%
    02:00 -1°C° 0 mm 2 mps 771 mmHg 76%
    03:00 -1°C° 0 mm 2 mps 771 mmHg 76%
    04:00 -1°C° 0 mm 2 mps 771 mmHg 75%
    05:00 -1°C° 0 mm 2 mps 770 mmHg 74%
    06:00 -1°C° 0 mm 2 mps 770 mmHg 73%
    07:00 +1°C° 0 mm 2 mps 770 mmHg 67%
    08:00 +2°C° 0 mm 2 mps 770 mmHg 60%
    09:00 +3°C° 0 mm 2 mps 770 mmHg 54%
    10:00 +5°C° 0 mm 2 mps 770 mmHg 49%
    11:00 +6°C° 0 mm 2 mps 770 mmHg 44%
    12:00 +8°C° 0 mm 2 mps 769 mmHg 39%
    13:00 +8°C° 0 mm 2 mps 769 mmHg 38%
    14:00 +9°C° 0 mm 2 mps 769 mmHg 36%
    15:00 +10°C° 0 mm 3 mps 768 mmHg 34%
    16:00 +9°C° 0 mm 3 mps 768 mmHg 38%
    17:00 +8°C° 0 mm 2 mps 768 mmHg 42%
    18:00 +8°C° 0 mm 2 mps 768 mmHg 46%
    19:00 +7°C° 0 mm 2 mps 768 mmHg 50%
    20:00 +5°C° 0 mm 2 mps 768 mmHg 54%
    21:00 +4°C° 0 mm 2 mps 768 mmHg 58%
    22:00 +4°C° 0 mm 2 mps 768 mmHg 60%
    23:00 +4°C° 0 mm 1 mps 768 mmHg 62%

    21 March, Thursday

    Time Temperature Precipitation Wind Pressure Humidity
    00:00 +4°C° 0 mm 1 mps 768 mmHg 63%
    01:00 +4°C° 0 mm 1 mps 767 mmHg 64%
    02:00 +2°C° 0 mm 0 mps 767 mmHg 65%
    03:00 +2°C° 0 mm 0 mps 767 mmHg 65%
    04:00 +2°C° 0 mm 0 mps 767 mmHg 65%
    05:00 +3°C° 0 mm 1 mps 766 mmHg 64%
    06:00 +3°C° 0 mm 1 mps 766 mmHg 63%
    07:00 +5°C° 0 mm 1 mps 766 mmHg 58%
    08:00 +5°C° 0 mm 2 mps 766 mmHg 52%
    09:00 +7°C° 0 mm 2 mps 766 mmHg 46%
    10:00 +9°C° 0 mm 2 mps 765 mmHg 44%
    11:00 +10°C° 0 mm 2 mps 765 mmHg 42%
    12:00 +12°C° 0 mm 2 mps 765 mmHg 40%
    13:00 +12°C° 0 mm 3 mps 764 mmHg 40%
    14:00 +12°C° 0 mm 3 mps 764 mmHg 39%
    15:00 +13°C° 0 mm 3 mps 764 mmHg 38%
    16:00 +12°C° 0 mm 3 mps 763 mmHg 45%
    17:00 +11°C° 0 mm 3 mps 763 mmHg 51%
    18:00 +10°C° 0 mm 3 mps 763 mmHg 57%
    19:00 +9°C° 0.1 mm 3 mps 763 mmHg 65%
    20:00 +8°C° 0.1 mm 3 mps 763 mmHg 73%
    21:00 +6°C° 0.1 mm 4 mps 763 mmHg 81%
    22:00 +6°C° 0.5 mm 4 mps 763 mmHg 83%
    23:00 +5°C° 0.5 mm 3 mps 762 mmHg 86%

    22 March, Friday

    Time Temperature Precipitation Wind Pressure Humidity
    00:00 +4°C° 0.5 mm 3 mps 762 mmHg 88%
    01:00 +4°C° 0.6 mm 3 mps 762 mmHg 88%
    02:00 +4°C° 0.6 mm 3 mps 762 mmHg 89%
    03:00 +3°C° 0.6 mm 3 mps 762 mmHg 89%
    04:00 +3°C° 0 mm 3 mps 762 mmHg 90%
    05:00 +4°C° 0 mm 2 mps 762 mmHg 90%
    06:00 +4°C° 0 mm 2 mps 762 mmHg 90%
    07:00 +4°C° 0 mm 2 mps 762 mmHg 86%
    08:00 +4°C° 0 mm 3 mps 762 mmHg 83%
    09:00 +4°C° 0 mm 3 mps 762 mmHg 79%
    10:00 +5°C° 0 mm 3 mps 762 mmHg 72%
    11:00 +6°C° 0 mm 4 mps 762 mmHg 64%
    12:00 +7°C° 0 mm 4 mps 762 mmHg 57%
    13:00 +7°C° 0 mm 4 mps 762 mmHg 54%
    14:00 +8°C° 0 mm 4 mps 762 mmHg 52%
    15:00 +8°C° 0 mm 4 mps 762 mmHg 49%
    16:00 +7°C° 0 mm 5 mps 763 mmHg 52%
    17:00 +6°C° 0 mm 5 mps 763 mmHg 55%
    18:00 +5°C° 0 mm 5 mps 764 mmHg 58%
    19:00 +3°C° 0 mm 5 mps 764 mmHg 64%
    20:00 +3°C° 0 mm 4 mps 765 mmHg 70%
    21:00 +1°C° 0 mm 4 mps 765 mmHg 75%
    22:00 0°C° 0 mm 4 mps 765 mmHg 77%
    23:00 +1°C° 0 mm 3 mps 765 mmHg 79%

    23 March, Saturday

    Time Temperature Precipitation Wind Pressure Humidity
    00:00 0°C° 0 mm 3 mps 765 mmHg 81%
    01:00 0°C° 0 mm 3 mps 765 mmHg 81%
    02:00 +1°C° 0 mm 2 mps 765 mmHg 82%
    03:00 -1°C° 0 mm 2 mps 766 mmHg 82%
    04:00 -1°C° 0 mm 2 mps 766 mmHg 80%
    05:00 -1°C° 0 mm 2 mps 766 mmHg 78%
    06:00 -1°C° 0 mm 2 mps 766 mmHg 76%
    07:00 +1°C° 0 mm 3 mps 765 mmHg 71%
    08:00 +3°C° 0 mm 3 mps 765 mmHg 67%
    09:00 +5°C° 0 mm 4 mps 765 mmHg 62%
    10:00 +6°C° 0 mm 5 mps 765 mmHg 59%
    11:00 +7°C° 0 mm 6 mps 764 mmHg 56%
    12:00 +8°C° 0 mm 6 mps 763 mmHg 53%
    13:00 +8°C° 0 mm 7 mps 762 mmHg 50%
    14:00 +8°C° 0 mm 7 mps 761 mmHg 48%
    15:00 +9°C° 0 mm 8 mps 760 mmHg 45%
    16:00 +8°C° 0 mm 7 mps 760 mmHg 48%
    17:00 +8°C° 0 mm 6 mps 759 mmHg 51%
    18:00 +7°C° 0 mm 5 mps 758 mmHg 55%
    19:00 +7°C° 0.7 mm 6 mps 758 mmHg 62%
    20:00 +5°C° 0.7 mm 7 mps 757 mmHg 70%
    21:00 +5°C° 0.7 mm 7 mps 757 mmHg 77%
    22:00 +5°C° 0.9 mm 7 mps 756 mmHg 80%
    23:00 +5°C° 0.9 mm 6 mps 756 mmHg 82%
    Show more